Regional Weather Roundup
Issued by NWS

Home | Current Version | Previous Version | Text Only | Print | Product List | Glossary On
Versions: 1 2 3 4 5 6 7 8 9 10 11 12 13 14 15 16 17 18 19 20 21 22 23 24 25 26 27 28 29 30 31 32 33 34 35 36 37 38 39 40 41 42 43 44 45 46 47 48 49 50
000
ASUS43 KDTX 010510
RWRMI
MICHIGAN HOURLY REGIONAL WEATHER ROUNDUP
NATIONAL WEATHER SERVICE DETROIT/PONTIAC MI
100 AM EDT SAT AUG 01 2015

NOTE: "FAIR" INDICATES FEW OR NO CLOUDS BELOW 12,000 FEET WITH NO
SIGNIFICANT WEATHER AND/OR OBSTRUCTION TO VISIBILITY.

MIZ047>049-052>055-059>063-066>070-074>076-081>083-010600-
SOUTHEAST LOWER MICHIGAN

CITY           SKY/WX    TMP DP  RH WIND       PRES   REMARKS
ADRIAN         CLEAR     63  54  72 W6        29.94R
ALMA           PTCLDY    59  58  98 CALM      29.91S
ANN ARBOR      CLEAR     63  53  70 W7        29.91S
BAD AXE        PTCLDY    60  57  89 CALM      29.88S
DETROIT CITY   CLEAR     72  54  53 W6        29.89S
DETROIT        CLEAR     69  52  54 W9        29.90S
FLINT          CLOUDY    69  57  65 W3        29.90F
GROSSE ILE     CLEAR     70  54  56 W5        29.89R
HILLSDALE      CLEAR     64  52  66 W3        29.95S
HOWELL         MOCLDY    64  53  67 W5        29.92R

CITY           SKY/WX    TMP DP  RH WIND       PRES   REMARKS
JACKSON        CLEAR     62  53  72 W7        29.93S
LAMBERTVILLE   CLEAR     67  54  63 W3        29.93R
LANSING        CLOUDY    65  54  67 W5        29.92S
LAPEER         NOT AVBL
MASON          PTCLDY    63  52  66 CALM      29.92S
MONROE         CLEAR     64  55  72 W3        29.90S
MT. CLEMENS    CLEAR     69  55  59 W5        29.87S
PONTIAC        MOCLDY    68  56  65 W7        29.90S
PORT HOPE        N/A     70  57  63 NW14G20   29.85R
PORT HURON     PTCLDY    59  57  94 CALM      29.88S
TRI CITIES     PTCLDY    66  55  67 W8        29.89S
YPSILANTI      CLEAR     71  53  52 W10       29.91S
$$
MIZ043>046-050>051-056>058-064>065-071>073-077>080-010600-
SOUTHWEST LOWER MICHIGAN

CITY           SKY/WX    TMP DP  RH WIND       PRES   REMARKS
BATTLE CREEK   CLEAR     65  54  67 W7        29.94F
BENTON HARBOR  CLEAR     68  60  75 W7        29.95S
BIG RAPIDS     CLEAR     59  58  96 CALM      29.92S
COLDWATER      CLEAR     60  54  79 SW3       29.95S
HOLLAND        CLEAR     69  60  73 W5        29.94S
GRAND RAPIDS   CLEAR     66  57  72 W7        29.92F
KALAMAZOO      CLEAR     65  55  70 W6        29.95S
MARSHALL       CLEAR     62  53  72 CALM      29.93F
MUSKEGON       CLEAR     69  62  78 W5        29.92S
$$
MIZ016>042-010600-
NORTHERN LOWER MICHIGAN

CITY           SKY/WX    TMP DP  RH WIND       PRES   REMARKS
ALPENA         CLEAR     59  55  87 W6        29.86S
BEAVER ISLAND  CLEAR     55  54  95 CALM      29.86F FOG
BELLAIRE       CLEAR     56  54  93 CALM      29.88S
CADILLAC       CLEAR     59  55  87 W5        29.91S
CHARLEVOIX     CLEAR     59  58  96 CALM      29.89S
FRANKFORT      CLEAR     58  56  96 CALM      29.89S
GAYLORD        CLEAR     57  53  86 CALM      29.89F
GRAYLING       CLEAR     53  51  94 CALM      29.90S
HARBOR SPRINGS CLEAR     58  53  85 CALM      29.86F
HOUGHTON LAKE  CLEAR     60  56  86 W5        29.91R
MANISTEE       PTCLDY    57  54  88 CALM      29.91F
OSCODA         PTCLDY    60  55  82 NW6       29.86S
PELLSTON       CLEAR     52  51  97 CALM      29.86S
TRAVERSE CITY  CLEAR     62  56  80 S3        29.86F
$$
MIZ007>008-015-010600-
EASTERN UPPER MICHIGAN

CITY           SKY/WX    TMP DP  RH WIND       PRES   REMARKS
KINROSS        CLEAR     57  54  88 SW3       29.83S
MACKINAC ISLAN CLEAR     63  53  70 W7        29.84S
NEWBERRY       CLEAR     58  53  84 W7        29.83S
S. S. MARIE    CLEAR     57  52  83 CALM      29.82S
$$
MIZ004>006-011>014-085-010600-
CENTRAL UPPER MICHIGAN

CITY           SKY/WX    TMP DP  RH WIND       PRES   REMARKS
MANISTIQUE     CLEAR     52  50  93 CALM      29.85S
ESCANABA       CLEAR     59  52  77 W7        29.87S
MENOMINEE      MOCLDY    63  48  59 W5        29.90S
SAWYER-GWINN   CLEAR     60  51  72 W6        29.87F
$$
MIZ001>003-009>011-084-010600-
WESTERN UPPER MICHIGAN

CITY           SKY/WX    TMP DP  RH WIND       PRES   REMARKS
IRON MOUNTAIN  CLEAR     62  52  69 W7        29.89S
HOUGHTON       CLEAR     60  55  83 W9        29.85F
COPPER HARBOR    N/A     65  54  67 N12       29.81S
IRONWOOD       MOCLDY    57  55  94 SW5       29.90S
$$

ABBREVIATIONS USED IN REMARKS
   TC - TEMPERATURE IN CELSIUS
  WCI - WIND CHILL INDEX
   HX - HEAT INDEX
  VSB - VISIBILITY




USA.gov is the U.S. government's official web portal to all federal, state and local government web resources and services.